LPPT

Lisbon Humberto Delgado Airport

Airport
ICAO code
LPPT
IATA Code
LIS
Summary
ICAO Region
EUR
ICAO Territory
Location

Portela, Lisbon

Serving
Lisbon
Elevation
374 ft
Coordinates
38° 46' 31" N , 9° 8' 5" W
KCC
Metar
LPPT 222130Z 34012KT CAVOK 14/10 Q1020

Lisbon Portela Airport, also known as Lisbon Airport, is located 7 km north of Castle of São Jorge in the city of Lisbon, the capital of Portugal.

Climatology

Dry-summer subtropical ”Mediterranean" climate (Köppen climate classification Csa)

Runways

Designator Length Width Surface Rops
17/35 2400 45 ASP Yes/Yes
3/21 3805 45 ASP Yes/Yes

SKYbrary Partners:

Safety knowledge contributed by: